Date String (YYYY-MM-DD hh:mm:ss) UTC,Instrument flags,Ambient pressure (hPa),Sample flow (lpm),Bypass flow (lpm),Sample temperature (°C),Ambient temperature (°C),ASC tube jacket temperature (°C),LED temperature (°C),Box temperature (°C),Sample RH (%),Span deviation,Mass concentration (μg/m³),Mass concentration (μg/m³),Mass concentration (μg/m³)
DateTimeUTC,F1_M11,P_M11,Q1_M11,Q2_M11,T1_M11,T2_M11,T3_M11,T4_M11,T5_M11,U1_M11,ZSPAN_M11,X0_M11,X2_M11,X1_M11
2022-10-24 10:00:00,,0816.8,5.00,0.00,21.7,20.1,00.0,30.8,23.5,08.6,0000.0,0003.02,0001.72,0001.63
2022-10-24 10:01:00,,0816.9,5.00,0.00,21.7,20.1,00.0,30.7,23.4,08.6,0000.0,0003.11,0001.73,0001.63
2022-10-24 10:02:00,,0816.9,5.01,0.00,21.7,20.1,00.0,30.7,23.5,08.6,0000.0,0003.49,0001.75,0001.63
2022-10-24 10:03:00,,0816.9,4.98,0.00,21.7,20.1,00.0,30.7,23.4,08.6,0000.0,0003.41,0001.75,0001.63
2022-10-24 10:04:00,,0816.9,5.02,0.00,21.7,20.1,00.0,30.7,23.4,08.6,0000.0,0002.98,0001.73,0001.62
2022-10-24 10:05:00,,0816.9,5.00,0.00,21.7,20.1,00.0,30.7,23.4,08.6,0000.0,0002.77,0001.74,0001.62
2022-10-24 10:06:00,,0817.2,5.00,0.00,21.7,20.1,00.0,30.7,23.4,08.6,0000.0,0002.78,0001.75,0001.62
2022-10-24 10:07:00,,0816.8,5.00,0.00,21.7,20.1,00.0,30.7,23.4,08.5,0000.0,0002.68,0001.74,0001.61
2022-10-24 10:08:00,,0816.8,5.00,0.00,21.7,20.1,00.0,30.7,23.3,08.4,0000.0,0002.67,0001.74,0001.60
2022-10-24 10:09:00,,0816.9,5.00,0.00,21.7,20.0,00.0,30.7,23.4,08.5,0000.0,0002.73,0001.75,0001.60
2022-10-24 10:10:00,,0816.8,5.00,0.00,21.7,20.1,00.0,30.7,23.4,08.6,0000.0,0002.69,0001.74,0001.59
2022-10-24 10:11:00,,0816.8,5.00,0.00,21.7,20.1,00.0,30.7,23.4,08.7,0000.0,0002.83,0001.74,0001.59
2022-10-24 10:12:00,,0816.9,5.00,0.00,21.7,20.1,00.0,30.7,23.5,08.7,0000.0,0002.83,0001.74,0001.59
2022-10-24 10:13:00,,0816.9,5.00,0.00,21.7,20.1,00.0,30.7,23.4,08.7,0000.0,0002.43,0001.73,0001.59
2022-10-24 10:14:00,,0817.1,5.00,0.00,21.6,20.0,00.0,30.7,23.3,08.6,0000.0,0002.51,0001.75,0001.59
2022-10-24 10:15:00,,0817.1,5.00,0.00,21.6,20.0,00.0,30.6,23.4,08.5,0000.0,0002.54,0001.75,0001.59
2022-10-24 10:16:00,,0817.1,5.00,0.00,21.6,20.0,00.0,30.6,23.3,08.4,0000.0,0002.49,0001.72,0001.58
2022-10-24 10:17:00,,0816.9,5.00,0.00,21.6,20.0,00.0,30.6,23.3,08.5,0000.0,0002.50,0001.71,0001.57
2022-10-24 10:18:00,,0816.9,5.00,0.00,21.6,20.0,00.0,30.6,23.4,08.5,0000.0,0002.87,0001.70,0001.56
2022-10-24 10:19:00,,0817.0,5.00,0.00,21.6,20.0,00.0,30.6,23.3,08.3,0000.0,0002.89,0001.70,0001.55
2022-10-24 10:20:00,,0817.0,5.02,0.00,21.6,20.1,00.0,30.6,23.5,08.3,0000.0,0002.82,0001.68,0001.54
2022-10-24 10:21:00,,0817.0,4.98,0.00,21.6,20.2,00.0,30.6,23.5,08.3,0000.0,0002.78,0001.65,0001.51
2022-10-24 10:22:00,,0817.0,5.00,0.00,21.6,20.2,00.0,30.6,23.5,08.2,0000.0,0002.66,0001.62,0001.49
2022-10-24 10:23:00,,0817.0,5.03,0.00,21.6,20.1,00.0,30.6,23.4,08.1,0000.0,0002.55,0001.59,0001.47
2022-10-24 10:24:00,,0817.1,4.98,0.00,21.6,20.1,00.0,30.6,23.4,08.1,0000.0,0002.48,0001.55,0001.44
2022-10-24 10:25:00,,0817.1,5.00,0.00,21.6,20.1,00.0,30.6,23.4,08.1,0000.0,0002.38,0001.52,0001.43
2022-10-24 10:26:00,,0817.0,5.00,0.00,21.6,20.1,00.0,30.6,23.5,08.1,0000.0,0002.31,0001.49,0001.42
2022-10-24 10:27:00,,0817.0,5.00,0.00,21.6,20.2,00.0,30.6,23.5,08.1,0000.0,0002.32,0001.50,0001.41
2022-10-24 10:28:00,,0817.0,5.03,0.00,21.7,20.2,00.0,30.6,23.5,08.0,0000.0,0002.29,0001.48,0001.39
2022-10-24 10:29:00,,0817.0,4.98,0.00,21.6,20.2,00.0,30.6,23.5,08.0,0000.0,0001.89,0001.46,0001.38
2022-10-24 10:30:00,,0817.0,5.00,0.00,21.6,20.2,00.0,30.6,23.5,08.1,0000.0,0001.79,0001.44,0001.38
2022-10-24 10:31:00,,0816.9,5.00,0.00,21.6,20.1,00.0,30.6,23.5,08.2,0000.0,0001.76,0001.43,0001.37
2022-10-24 10:32:00,,0817.0,5.00,0.00,21.6,20.1,00.0,30.6,23.4,08.3,0000.0,0001.76,0001.42,0001.37
2022-10-24 10:33:00,,0817.0,5.00,0.00,21.6,20.1,00.0,30.6,23.4,08.2,0000.0,0001.75,0001.43,0001.37
2022-10-24 10:34:00,,0817.1,4.99,0.00,21.6,20.1,00.0,30.6,23.5,08.2,0000.0,0001.78,0001.44,0001.36
2022-10-24 10:35:00,,0817.1,5.02,0.00,21.6,20.0,00.0,30.6,23.4,08.2,0000.0,0001.78,0001.44,0001.37
2022-10-24 10:36:00,,0817.1,5.00,0.00,21.6,20.0,00.0,30.6,23.3,08.2,0000.0,0003.22,0001.45,0001.37
2022-10-24 10:37:00,,0817.1,4.98,0.00,21.6,20.0,00.0,30.6,23.4,08.1,0000.0,0003.69,0001.46,0001.37
2022-10-24 10:38:00,,0817.2,5.00,0.00,21.6,20.0,00.0,30.6,23.3,08.1,0000.0,0003.71,0001.45,0001.37
2022-10-24 10:39:00,,0817.2,5.00,0.00,21.6,20.0,00.0,30.6,23.3,08.1,0000.0,0004.11,0001.45,0001.37
2022-10-24 10:40:00,,0817.3,5.00,0.00,21.6,20.0,00.0,30.5,23.3,08.1,0000.0,0004.12,0001.46,0001.37
2022-10-24 10:41:00,,0817.3,5.00,0.00,21.6,20.0,00.0,30.5,23.4,08.2,0000.0,0004.14,0001.47,0001.38
2022-10-24 10:42:00,,0817.3,5.00,0.00,21.6,20.0,00.0,30.5,23.4,08.2,0000.0,0004.15,0001.47,0001.38
2022-10-24 10:43:00,,0817.3,5.00,0.00,21.6,20.0,00.0,30.5,23.4,08.2,0000.0,0004.15,0001.47,0001.39
2022-10-24 10:44:00,,0817.3,5.00,0.00,21.6,20.0,00.0,30.5,23.4,08.2,0000.0,0004.15,0001.47,0001.39
2022-10-24 10:45:00,,0817.3,5.00,0.00,21.6,20.0,00.0,30.5,23.4,08.2,0000.0,0004.14,0001.48,0001.40
2022-10-24 10:46:00,,0817.3,5.01,0.00,21.6,20.0,00.0,30.5,23.4,08.1,0000.0,0004.12,0001.46,0001.40
2022-10-24 10:47:00,,0817.3,5.00,0.00,21.6,20.1,00.0,30.5,23.4,08.1,0000.0,0002.72,0001.47,0001.39
2022-10-24 10:48:00,,0817.3,5.00,0.00,21.6,20.1,00.0,30.5,23.4,08.1,0000.0,0002.27,0001.46,0001.38
2022-10-24 10:49:00,,0817.2,5.01,0.00,21.6,20.1,00.0,30.5,23.4,08.1,0000.0,0002.25,0001.46,0001.37
2022-10-24 10:50:00,,0817.3,5.00,0.00,21.6,20.0,00.0,30.5,23.4,08.1,0000.0,0001.88,0001.46,0001.37
2022-10-24 10:51:00,,0817.3,5.00,0.00,21.5,20.0,00.0,30.5,23.3,08.1,0000.0,0001.89,0001.47,0001.37
2022-10-24 10:52:00,,0817.2,5.00,0.00,21.5,20.0,00.0,30.5,23.3,08.1,0000.0,0001.90,0001.47,0001.37
2022-10-24 10:53:00,,0817.2,5.00,0.00,21.5,20.0,00.0,30.5,23.4,08.1,0000.0,0001.92,0001.48,0001.37
2022-10-24 10:54:00,,0817.3,5.00,0.00,21.5,20.0,00.0,30.5,23.3,08.1,0000.0,0001.92,0001.48,0001.37
2022-10-24 10:55:00,,0817.2,5.00,0.00,21.5,20.0,00.0,30.5,23.3,08.1,0000.0,0001.93,0001.48,0001.38
2022-10-24 10:56:00,,0817.3,4.98,0.00,21.5,20.0,00.0,30.5,23.3,08.1,0000.0,0001.92,0001.48,0001.38
2022-10-24 10:57:00,,0817.3,5.03,0.00,21.5,20.0,00.0,30.5,23.4,08.1,0000.0,0001.96,0001.49,0001.39
2022-10-24 10:58:00,,0817.2,4.98,0.00,21.5,20.0,00.0,30.5,23.4,08.0,0000.0,0001.97,0001.50,0001.39
2022-10-24 10:59:00,,0817.3,5.00,0.00,21.5,20.1,00.0,30.5,23.4,08.0,0000.0,0001.97,0001.50,0001.40
